CSS (TIANHE-1)
1 48274U 21035A   25284.29202209  .00029625  00000-0  33886-3 0  9998
2 48274  41.4664  36.2444 0003126 225.6885 134.3699 15.61491640254275
TUBIN
1 48900U 21059X   25284.26299159  .00105345  00000-0  67092-3 0  9997
2 48900  97.6749 104.7711 0002058 142.0051 218.1359 15.76114464239400
LEDSAT
1 49069U 21073D   25284.19421947  .01447052  15282-2  13926-2 0  9995
2 49069  97.3595  13.2196 0008443 283.4308  76.6035 16.12043224230879
CUTE
1 49263U 21088D   25284.20048155  .00033032  00000-0  52249-3 0  9995
2 49263  97.4398   4.4888 0006824 134.7281 225.4528 15.53368665223579
TeikyoSat 4
1 49396U 21102B   25284.04719859  .00003120  00000-0  20511-3 0  9999
2 49396  97.3987 317.9861 0013882  72.6198 287.6548 15.08216651215155
Z-Sat
1 49399U 21102E   25284.27028895  .00005101  00000-0  27114-3 0  9997
2 49399  97.3672 322.0962 0018593  39.5561 320.7025 15.15567623215704
KOSEN 1
1 49402U 21102H   25284.08401449  .00008343  00000-0  36544-3 0  9999
2 49402  97.3569 326.3083 0015333  13.0875 347.0756 15.22160609216063
HO-113
1 50466U 21131B   25284.29830307  .00000851  00000-0  27846-3 0  9996
2 50466  98.5074  13.0350 0005187 120.0874 240.0830 14.40982562199266
SNUGLITE 2
1 52899U 22065F   25284.32067098  .00001752  00000-0  34652-3 0  9992
2 52899  98.1870  65.2397 0008680  86.4287 273.7908 14.63569125174580
UmKA 1 (RS40S)
1 57172U 23091G   25284.23322691  .00008183  00000-0  41738-3 0  9992
2 57172  97.5432 338.9914 0012374 265.3907  94.5913 15.16940181126219
CubeBel-2 (EU11S)
1 57175U 23091K   25284.30112387  .00011836  00000-0  52188-3 0  9992
2 57175  97.5430 341.0337 0009957 269.7273  90.2822 15.21906623126357
ENSO
1 58470U 23185J   25281.93581024  .00297561  00000-0  15281-2 0  9992
2 58470  97.3562   2.3759 0004010 303.5658  56.5227 15.80429301104004
SONATE-2
1 59112U 24043Q   25284.32497329  .00025208  00000-0  61585-3 0  9996
2 59112  97.5293  58.4802 0010118  34.2635 325.9262 15.40769071 89350
MO-122
1 60209U 24125G   25284.04135594  .00025734  00000-0  61344-3 0  9995
2 60209  97.2619 134.5700 0018053  55.8261 304.4694 15.41386029 70935
GRBBeta
1 60237U 24128C   25284.26852297  .00004839  00000-0  35248-3 0  9996
2 60237  61.9926   7.9481 0056934  83.4400 277.3169 15.03889898 68792
Curium One
1 60242U 24128H   25284.20353811  .00008472  00000-0  55170-3 0  9997
2 60242  61.9821   4.4076 0056728  79.8794 280.8692 15.07307378 68859
ROBUSTA-3A
1 60243U 24128J   25284.31453772  .00008621  00000-0  57041-3 0  9992
2 60243  61.9896   5.2927 0056343  77.4745 283.2643 15.06725137 68858
CatSat
1 60246U 24125J   25284.13647630  .00028916  00000-0  82816-3 0  9997
2 60246  97.2433 132.4113 0038570  15.7319 344.5113 15.35123715 68909
HYPERVIEW-1G (RS66S)
1 61772U 24199AP  25284.29281352  .00033394  00000-0  78694-3 0  9990
2 61772  97.3301 153.2116 0014020 104.3547 255.9258 15.41750158 95971
AO-123
1 61781U 24199AY  25284.32317270  .00009122  00000-0  31269-3 0  9992
2 61781  97.3329 150.5087 0016880 115.1735 245.1259 15.30272265 95791
ZIMSAT 2
1 61783U 24199BA  25284.32667307  .00080088  00000-0  12492-2 0  9999
2 61783  97.3236 155.2102 0012860  96.8658 263.4059 15.53478095 99264
HADES-R (SO-124)
1 62690U 25009CK  25284.17522730  .00073228  00000-0  17320-2 0  9994
2 62690  97.3979   5.2783 0001305 347.6816  12.4399 15.41543950 41097
HYDRA-T
1 62692U 25009CM  25284.19486050  .00077467  00000-0  17947-2 0  9996
2 62692  97.3981   5.4042 0001382 325.5726  34.5431 15.42150137 41108
JINJUSat 1B
1 63210U 25052A   25283.21432867  .00016555  00000-0  68774-3 0  9996
2 63210  97.4227 175.8924 0001598 231.0619 129.0475 15.23888918 31900
NUSHSAT 1
1 63211U 25052B   25284.22878613  .00017161  00000-0  69876-3 0  9990
2 63211  97.4211 176.9517 0001499 233.0697 127.0404 15.24558348 32062
TEVEL2-4
1 63213U 25052D   25284.20631833  .00016478  00000-0  68077-3 0  9993
2 63213  97.4126 176.6026 0000689 296.7768  63.3399 15.24076503 32058
TEVEL2-5
1 63214U 25052E   25284.20935472  .00016597  00000-0  68667-3 0  9997
2 63214  97.4126 176.5991 0000706 302.2684  57.8485 15.24027521 32059
TEVEL2-6
1 63215U 25052F   25284.21476404  .00016758  00000-0  69413-3 0  9993
2 63215  97.4130 176.5956 0000759 303.3068  56.8097 15.23987272 32057
TEVEL2-1
1 63217U 25052H   25284.17958673  .00017124  00000-0  71498-3 0  9997
2 63217  97.4101 176.4220 0001303 331.9405  28.1762 15.23711643 32045
TEVEL2-3
1 63218U 25052J   25284.24514052  .00017123  00000-0  71460-3 0  9993
2 63218  97.4106 176.4895 0001458 333.6844  26.4319 15.23726222 32055
TEVEL2-2
1 63219U 25052K   25284.24601841  .00017141  00000-0  71568-3 0  9996
2 63219  97.4108 176.4871 0001444 336.2263  23.8907 15.23711996 32057
TEVEL2-9
1 63237U 25052AD  25283.42784304  .00015729  00000-0  68398-3 0  9998
2 63237  97.4172 175.4673 0005834 322.2180  37.8646 15.22336891 31901
TEVEL2-7
1 63238U 25052AE  25284.22525794  .00015603  00000-0  68010-3 0  9996
2 63238  97.4175 176.2395 0005849 318.2156  41.8633 15.22257039 32020
TEVEL2-8
1 63239U 25052AF  25284.22976498  .00015902  00000-0  69364-3 0  9993
2 63239  97.4175 176.2310 0005833 319.8049  40.2755 15.22227900 32021
HYDRA-W
1 63490U 25052BL  25284.23838079  .00048027  00000-0  15542-2 0  9997
2 63490  97.4107 177.5898 0006669 311.3243  48.7424 15.31871538 32120
HADES-ICM (SO-125)
1 63492U 25052BN  25284.24015970  .00044390  00000-0  14840-2 0  9996
2 63492  97.4118 177.4522 0007299 315.9223  44.1435 15.30838460 32112
